Zurück zum Katalog

STARLINK-34348

AktivKommunikationSSO
NORAD 64152·PAYLOAD·🇺🇸 United States

Gestartet May 27, 2025 von Vandenberg Space Force Base

Loading…

Nächste Überflüge (nächste 24 Stunden)

TLE

AktuellSource: CelesTrak SupGP

Epoche: Sep 14, 2026, 21:16 UTC

1 64152C 25112G   26257.88659722 -.00006285  00000+0 -19524-3 0  2571
2 64152  97.2830 305.0029 0001181  96.1761 345.8207 15.33419531    14

Verfolge STARLINK-34348 in Echtzeit mit AllMySat

Download on the App Store